Weather observations for the past three days for
Fitchburg, Fitchburg Municipal Airport
Imperial (Metric)
Date Time (edt) Wind (mph) Vis. (mi.) Weather Sky Cond. Temperature (ºF) Relative Humidity Wind Chill (°F) Heat Index (°F) Pressure Precipitation (in)
Air Dwpt 6 hour altimeter (in) sea level (mb) 1 hr 3 hr 6 hr
Max. Min.
22 04:52 SE 3 4.00 Fog/Mist OVC005 66 63 90% 30.08 1018.5
22 03:52 SE 3 8.00 Overcast OVC006 66 63 90% 30.09 1018.9
22 02:52 Calm 10.00 Overcast OVC011 66.9 62.1 84% 30.11 1019.5
22 01:52 Calm 10.00 Overcast OVC011 66 63 68 66 90% 30.13 1020.3
22 00:52 Calm 10.00 Overcast OVC010 66 63 90% 30.13 1020.2
21 23:52 Calm 10.00 Overcast OVC015 66.9 63 87% 30.13 1020.0
21 22:52 Calm 10.00 Overcast OVC017 66.9 63 87% 30.15 1021.0
21 21:52 Calm 10.00 Light Rain OVC022 66.9 63 87% 30.18 1021.9
21 20:52 E 3 10.00 Overcast OVC009 68 63 84% 30.17 1021.7
21 19:52 E 5 10.00 Overcast OVC014 68 63 82.9 68 84% 30.18 1021.9 0.01 0.18
21 18:52 E 3 2.50 Heavy Rain FEW055 SCT070 OVC090 69.1 64 84% 30.18 1021.9 0.15
21 17:52 NE 8 9.00 Thunderstorm in Vicinity Light Rain OVC034 75 64 69% 77 30.15 1021.0 0.01
21 16:52 E 6 10.00 Partly Cloudy FEW033 SCT050 80.1 64 58% 82 30.14 1020.5 0.01
21 15:52 E 7 10.00 Mostly Cloudy BKN032 BKN050 82.9 64.9 55% 85 30.14 1020.6 0.01
21 14:52 E 6 10.00 Light Rain BKN032 81 66 61% 83 30.15 1020.8
21 13:52 E 10 10.00 Overcast BKN032 BKN039 OVC065 82 69.1 89.1 75 65% 85 30.16 1021.2
21 12:52 Vrbl 3 10.00 Mostly Cloudy FEW030 SCT037 BKN044 87.1 69.1 55% 91 30.17 1021.6
21 11:52 Vrbl 3 10.00 Partly Cloudy FEW027 SCT032 84 68 59% 87 30.19 1022.3
21 10:52 NE 6 10.00 A Few Clouds FEW040 82.9 69.1 63% 87 30.2 1022.7
21 09:52 N 5 10.00 A Few Clouds FEW022 82.9 70 65% 87 30.2 1022.6
21 08:52 Vrbl 3 10.00 Fair CLR 80.1 69.1 69% 83 30.2 1022.6
21 07:52 Calm 10.00 Fair CLR 75.9 69.1 75.9 69.1 79% 77 30.21 1022.7
21 06:52 N 5 10.00 Fair CLR 73 66.9 81% 30.19 1022.4
21 05:52 Calm 8.00 A Few Clouds FEW050 70 66.9 90% 30.19 1022.4
21 04:52 NE 5 10.00 Fair CLR 71.1 66.9 87% 30.18 1022.0
21 03:52 NE 5 10.00 Fair CLR 71.1 66.9 87% 30.18 1022.0
21 02:52 Calm 10.00 Fair CLR 71.1 66.9 87% 30.19 1022.2
21 01:52 S 5 10.00 Fair CLR 71.1 68 75.9 71.1 90% 30.2 1022.5 0.14
21 00:52 S 3 10.00 Fair CLR 71.1 68 90% 30.21 1022.8
20 23:52 Calm 10.00 Fair CLR 72 69.1 91% 30.22 1023.3
20 22:52 NW 3 10.00 Light Rain FEW007 SCT025 SCT070 72 69.1 91% 30.24 1024.0 0.02 0.14
20 21:52 E 5 6.00 Light Rain BKN110 73 68 84% 30.24 1024.0 0.08
20 20:52 Vrbl 3 10.00 Thunderstorm in Vicinity Light Rain FEW065 BKN100 BKN120 73 66.9 81% 30.26 1024.6 0.04
20 19:52 NW 18 G 33 10.00 Thunderstorm in Vicinity SCT042 BKN050 OVC070 77 66.9 97 77 71% 79 30.23 1023.5
20 18:52 SW 5 10.00 Fair CLR 90 72 56% 97 30.17 1021.7
20 17:52 SW 7 10.00 Fair CLR 91.9 73 54% 101 30.16 1021.2
20 16:52 SW 6 10.00 Fair CLR 90 71.1 54% 96 30.18 1021.8
20 15:52 SW 12 G 18 10.00 Fair CLR 96.1 70 43% 103 30.18 1022.0
20 14:52 SW 8 10.00 Fair CLR 96.1 70 43% 103 30.2 1022.5
20 13:52 W 7 10.00 Fair CLR 95 71.1 95 78.1 46% 102 30.22 1023.4
20 12:52 NW 9 10.00 Fair CLR 93 73 52% 102 30.24 1024.0
20 11:52 W 7 10.00 Fair CLR 91.9 73 54% 101 30.25 1024.4
20 10:52 W 7 10.00 Fair CLR 90 72 56% 97 30.26 1024.5
20 09:52 NW 7 10.00 Fair CLR 88 71.1 57% 94 30.26 1024.4
20 08:52 Vrbl 6 10.00 Fair CLR 81 68 65% 84 30.26 1024.7
20 07:52 W 7 10.00 Fair CLR 78.1 64.9 78.1 72 64% 80 30.27 1024.8
20 06:52 NW 7 10.00 Fair CLR 75 64 69% 77 30.27 1024.8
20 05:52 NW 5 10.00 Fair CLR 73 64 74% 30.25 1024.3
20 04:52 NW 7 10.00 Fair CLR 73 64.9 76% 30.25 1024.2
20 03:52 NW 5 10.00 Fair CLR 73 66 79% 30.25 1024.2
20 02:52 NW 3 10.00 Fair CLR 73 66.9 81% 30.26 1024.5
20 01:52 NW 6 10.00 Fair CLR 73.9 66.9 77 73 79% 30.26 1024.5 0.04
20 00:52 N 7 10.00 Fair CLR 75 68 79% 76 30.27 1024.8
19 23:52 Calm 10.00 Fair CLR 73.9 69.1 85% 30.27 1025.0
19 22:52 N 3 10.00 Fair CLR 73.9 69.1 85% 30.28 1025.4 0.04
19 21:52 Calm 10.00 Fair CLR 75 68 79% 76 30.29 1025.6
19 20:52 S 3 10.00 Light Rain CLR 75 69.1 82% 75 30.27 1025.0 0.04
19 19:52 NW 10 8.00 Light Rain FEW120 77 68 97 77 74% 79 30.27 1025.1 0.01 0.01
19 18:52 W 8 10.00 Fair CLR 82.9 68 61% 86 30.26 1024.7
19 17:52 W 7 10.00 A Few Clouds FEW060 87.1 71.1 59% 93 30.26 1024.7
19 16:52 SW 5 10.00 Fair CLR 90 72 56% 97 30.25 1024.4
19 15:52 W 8 10.00 Fair CLR 93 70 47% 99 30.25 1024.4
19 14:52 Vrbl 6 G 16 10.00 Fair CLR 96.1 71.1 44% 104 30.26 1024.3
19 13:52 W 8 10.00 Fair CLR 93.9 72 95 79 49% 102 30.27 1024.8
19 12:52 Vrbl 5 10.00 Fair CLR 93 71.1 49% 100 30.28 1025.2
19 11:52 W 6 10.00 Fair CLR 91 71.1 52% 98 30.3 1025.9
19 10:52 SW 6 10.00 Fair CLR 89.1 70 53% 94 30.3 1026.0
19 09:52 W 7 10.00 Fair CLR 84 66.9 57% 87 30.31 1026.2
19 08:52 W 6 10.00 Fair CLR 81 64.9 58% 83 30.31 1026.3
19 07:52 NW 7 10.00 Fair CLR 79 63 79 72 58% 81 30.31 1026.4
19 06:52 W 5 10.00 Fair CLR 75 62.1 64% 77 30.31 1026.2
19 05:52 Calm 10.00 Fair CLR 73 62.1 69% 30.29 1025.8
Date Time (edt) Wind (mph) Vis. (mi.) Weather Sky Cond. Air Dwpt Max. Min. Relative Humidity Wind Chill (°F) Heat Index (°F) altimeter (in) sea level (mb) 1 hr 3 hr 6 hr
6 hour
Temperature (ºF) Pressure Precipitation (in)